This is the latest recevied weather packets stored in our database for station/object KD9JB-1. If no packets are shown the sender has not sent any weather packets the latest 10 day(s).
| Time | Temp. | Humidity | Pressure | Rain* | Wind** | Luminosity | Snow |
|---|---|---|---|---|---|---|---|
| 1777411612 | 21.67° C | 68% | 1012.6 hPa | 0 mm | - | - | - |
| 1777411312 | 21.67° C | 68% | 1012.9 hPa | 0 mm | - | - | - |
| 1777411012 | 21.67° C | 66% | 1013.2 hPa | 0 mm | - | - | - |
| 1777410712 | 21.67° C | 66% | 1013.4 hPa | 0 mm | - | - | - |
| 1777410412 | 21.67° C | 67% | 1013.5 hPa | 0 mm | - | - | - |
| 1777410112 | 21.67° C | 68% | 1013.6 hPa | 0 mm | - | - | - |
| 1777409812 | 21.67° C | 67% | 1013.7 hPa | 0 mm | - | - | - |
| 1777409512 | 21.67° C | 68% | 1013.6 hPa | 0 mm | - | - | - |
| 1777409212 | 21.67° C | 65% | 1013.7 hPa | 0 mm | - | - | - |
| 1777408912 | 21.67° C | 67% | 1013.7 hPa | 0 mm | - | - | - |
| 1777408612 | 21.67° C | 65% | 1013.7 hPa | 0 mm | - | - | - |
| 1777408313 | 21.67° C | 66% | 1013.7 hPa | 0 mm | - | - | - |
| 1777408012 | 21.67° C | 66% | 1013.7 hPa | 0 mm | - | - | - |
| 1777407712 | 21.11° C | 68% | 1013.8 hPa | 0 mm | - | - | - |
| 1777407412 | 21.67° C | 65% | 1014 hPa | 0 mm | - | - | - |
| 1777407112 | 22.22° C | 66% | 1014.1 hPa | 0 mm | - | - | - |
| 1777406812 | 21.67° C | 64% | 1014.3 hPa | 0 mm | - | - | - |
| 1777406512 | 22.22° C | 64% | 1014.3 hPa | 0 mm | - | - | - |
| 1777406212 | 22.22° C | 64% | 1014.4 hPa | 0 mm | - | - | - |
| 1777405912 | 21.67° C | 65% | 1014.4 hPa | 0 mm | - | - | - |
| 1777405612 | 22.22° C | 64% | 1014.7 hPa | 0 mm | - | - | - |
| 1777405312 | 22.22° C | 65% | 1014.8 hPa | 0 mm | - | - | - |
| 1777405012 | 22.22° C | 64% | 1015 hPa | 0 mm | - | - | - |
| 1777404712 | 22.22° C | 64% | 1015.1 hPa | 0 mm | - | - | - |
| 1777404412 | 22.22° C | 62% | 1014.9 hPa | 0 mm | - | - | - |
* Rain latest hour (hover to see other rain measurements)
** Current wind speed in m/s (hover to see current wind gust speed)